TimeEDT,TemperatureF,Dew PointF,Humidity,Sea Level PressureIn,VisibilityMPH,Wind Direction,Wind SpeedMPH,Gust SpeedMPH,PrecipitationIn,Events,Conditions,WindDirDegrees,DateUTC
12:54 AM,27.0,21.0,78,30.09,10.0,NNW,6.9,-,N/A,,Clear,340,2013-03-24 04:54:00
1:54 AM,26.1,21.0,81,30.08,10.0,West,3.5,-,N/A,,Clear,280,2013-03-24 05:54:00
2:54 AM,25.0,21.0,85,30.07,10.0,NW,4.6,-,N/A,,Clear,310,2013-03-24 06:54:00
3:54 AM,23.0,19.9,88,30.06,10.0,West,4.6,-,N/A,,Clear,270,2013-03-24 07:54:00
4:54 AM,21.9,19.9,92,30.07,10.0,WSW,3.5,-,N/A,,Mostly Cloudy,250,2013-03-24 08:54:00
5:54 AM,24.1,21.0,88,30.08,10.0,Calm,Calm,-,N/A,,Overcast,0,2013-03-24 09:54:00
6:54 AM,24.1,21.0,88,30.07,10.0,NNW,4.6,-,N/A,,Overcast,330,2013-03-24 10:54:00
7:54 AM,25.0,21.9,88,30.08,10.0,Calm,Calm,-,N/A,,Overcast,0,2013-03-24 11:54:00
8:54 AM,27.0,21.9,81,30.07,10.0,Calm,Calm,-,N/A,,Overcast,0,2013-03-24 12:54:00
9:54 AM,30.9,24.1,76,30.06,10.0,NE,9.2,-,N/A,,Overcast,50,2013-03-24 13:54:00
10:54 AM,32.0,21.9,66,30.05,10.0,NNE,8.1,-,N/A,,Mostly Cloudy,30,2013-03-24 14:54:00
11:33 AM,32.0,21.2,64,30.01,10.0,NNE,8.1,-,N/A,,Mostly Cloudy,30,2013-03-24 15:33:00
11:46 AM,32.0,19.4,60,30.01,10.0,ENE,6.9,-,N/A,,Mostly Cloudy,60,2013-03-24 15:46:00
11:54 AM,32.0,19.9,61,30.04,10.0,NE,5.8,-,N/A,,Mostly Cloudy,50,2013-03-24 15:54:00
12:54 PM,33.1,19.0,56,30.00,10.0,NE,8.1,-,N/A,,Partly Cloudy,40,2013-03-24 16:54:00
1:54 PM,33.1,21.0,61,29.98,10.0,North,10.4,-,N/A,,Mostly Cloudy,10,2013-03-24 17:54:00
2:54 PM,33.1,19.9,59,29.96,10.0,NE,10.4,-,N/A,,Scattered Clouds,40,2013-03-24 18:54:00
3:54 PM,32.0,21.0,64,29.93,10.0,NNE,10.4,-,N/A,,Scattered Clouds,30,2013-03-24 19:54:00
4:02 PM,32.0,21.2,64,29.89,10.0,North,13.8,-,N/A,,Mostly Cloudy,10,2013-03-24 20:02:00
4:32 PM,30.2,21.2,69,29.88,10.0,North,13.8,-,N/A,,Scattered Clouds,10,2013-03-24 20:32:00
4:54 PM,30.9,21.0,67,29.91,10.0,North,13.8,-,N/A,,Scattered Clouds,10,2013-03-24 20:54:00
5:54 PM,30.9,21.9,69,29.89,10.0,North,11.5,-,N/A,,Clear,10,2013-03-24 21:54:00
6:54 PM,32.0,19.9,61,29.89,10.0,NE,6.9,-,N/A,,Clear,50,2013-03-24 22:54:00
7:54 PM,28.0,21.0,75,29.88,10.0,North,5.8,-,N/A,,Clear,360,2013-03-24 23:54:00
8:54 PM,26.1,19.9,78,29.88,10.0,North,3.5,-,N/A,,Clear,360,2013-03-25 00:54:00
9:54 PM,25.0,19.9,81,29.87,10.0,North,5.8,-,N/A,,Clear,10,2013-03-25 01:54:00
10:54 PM,26.1,21.0,81,29.86,10.0,North,5.8,-,N/A,,Clear,360,2013-03-25 02:54:00
11:54 PM,26.1,21.9,84,29.86,10.0,North,4.6,-,N/A,,Overcast,360,2013-03-25 03:54:00